User: anonymous   Login
Location: Lawrence
(38.9720°N, 95.2350°W)
Time: 16:59:19
(UTC-06:00)
Language:

ALOS - Orbit

View from above orbital plane
View from above orbital plane
View from above satellite
View from above satellite

Ground track
Ground track

The orbit data is extracted from the following two-line orbital elements,

1 28931U 06002A   18052.80776967  .00000105  00000-0  29311-4 0  9993
2 28931  97.8257  72.4138 0000669  93.8459 266.2818 14.62459638643944
Epoch (UTC): 21 February 2018 19:23:11
Eccentricity: 0.0000669
inclination: 97.8257°
perigee height: 685 km
apogee height: 686 km
right ascension of ascending node: 72.4138°
argument of perigee: 93.8459°
revolutions per day: 14.62459638
mean anomaly at epoch: 266.2818°
orbit number at epoch: 64394

The dashed part of the orbit path shows where the satellite is in the earth's shadow,  

DLR